timestamp,wind_dir_avg,wind_spd_avg,wind_spd_max_dir,wind_spd_gust,battery_voltage,lat,long
2023-06-08 00:04:00+00:00,211.0,3.46,213.0,3.86,12.89,47.59359,-54.27349
2023-06-08 00:14:01+00:00,219.0,4.72,223.0,5.24,12.41,47.59359,-54.27349
2023-06-08 00:24:01+00:00,230.0,3.9,228.0,4.58,12.41,47.59359,-54.27349
2023-06-08 00:34:01+00:00,191.0,3.79,195.0,4.05,12.41,47.59359,-54.27349
2023-06-08 00:44:01+00:00,216.0,2.55,227.0,3.25,12.41,47.59359,-54.27349
2023-06-08 00:54:01+00:00,208.0,3.78,209.0,4.08,12.41,47.59359,-54.27349
2023-06-08 01:04:01+00:00,214.0,3.24,214.0,3.52,12.41,47.59359,-54.27349
2023-06-08 01:14:00+00:00,193.0,3.33,192.0,3.66,12.41,47.59359,-54.27349
2023-06-08 01:24:00+00:00,210.0,3.76,213.0,4.12,12.41,47.59359,-54.27349
2023-06-08 01:34:00+00:00,195.0,3.76,196.0,4.05,12.41,47.59359,-54.27349
2023-06-08 01:44:00+00:00,206.0,4.74,206.0,5.1,12.41,47.59359,-54.27349
2023-06-08 01:54:00+00:00,195.0,4.01,196.0,4.43,12.41,47.59359,-54.27349
2023-06-08 02:04:00+00:00,199.0,2.51,200.0,2.7,12.41,47.59359,-54.27349
2023-06-08 02:14:00+00:00,189.0,3.71,196.0,4.17,12.41,47.59359,-54.27349
2023-06-08 02:24:00+00:00,181.0,2.69,180.0,3.13,12.41,47.59359,-54.27349
2023-06-08 02:34:00+00:00,188.0,2.62,188.0,2.97,12.41,47.59359,-54.27349
2023-06-08 02:44:00+00:00,184.0,3.4,186.0,3.67,12.41,47.59359,-54.27349
2023-06-08 02:54:00+00:00,205.0,3.85,209.0,4.36,12.41,47.59359,-54.27349
2023-06-08 03:04:00+00:00,190.0,3.03,195.0,3.39,12.41,47.59359,-54.27349
2023-06-08 03:14:00+00:00,201.0,3.35,202.0,3.73,12.33,47.59359,-54.27349
2023-06-08 03:24:00+00:00,189.0,2.51,190.0,2.68,12.33,47.59359,-54.27349
2023-06-08 03:34:00+00:00,173.0,2.43,177.0,2.74,12.33,47.59359,-54.27349
2023-06-08 03:44:00+00:00,181.0,3.05,181.0,3.17,12.33,47.59359,-54.27349
2023-06-08 03:54:00+00:00,180.0,3.4,184.0,3.85,12.33,47.59359,-54.27349
2023-06-08 04:04:00+00:00,182.0,3.14,183.0,3.29,12.33,47.59359,-54.27349
2023-06-08 04:14:01+00:00,185.0,3.26,186.0,3.39,12.33,47.59359,-54.27349
2023-06-08 04:24:01+00:00,181.0,3.01,182.0,3.13,12.33,47.59359,-54.27349
2023-06-08 04:34:01+00:00,189.0,2.52,192.0,3.01,12.33,47.59359,-54.27349
2023-06-08 04:44:01+00:00,184.0,3.67,185.0,3.8,12.33,47.59359,-54.27349
2023-06-08 04:54:01+00:00,180.0,2.96,181.0,3.18,12.33,47.59359,-54.27349
2023-06-08 05:04:01+00:00,188.0,3.14,190.0,3.22,12.33,47.59359,-54.27349
2023-06-08 05:14:01+00:00,192.0,3.5,193.0,3.67,12.33,47.59359,-54.27349
2023-06-08 05:24:01+00:00,201.0,3.98,206.0,4.2,12.33,47.59359,-54.27349
2023-06-08 05:34:01+00:00,199.0,3.06,200.0,3.17,12.33,47.59359,-54.27349
2023-06-08 05:44:01+00:00,218.0,4.18,221.0,4.66,12.33,47.59359,-54.27349
2023-06-08 05:54:01+00:00,212.0,4.72,212.0,4.97,12.33,47.59359,-54.27349
2023-06-08 06:04:01+00:00,203.0,3.4,214.0,3.82,12.33,47.59359,-54.27349
2023-06-08 06:14:01+00:00,227.0,3.7,234.0,4.54,12.25,47.59359,-54.27349
2023-06-08 06:24:01+00:00,237.0,2.64,237.0,3.25,12.25,47.59359,-54.27349
2023-06-08 06:34:01+00:00,231.0,1.58,236.0,1.99,12.25,47.59359,-54.27349
2023-06-08 06:44:01+00:00,191.0,1.8,203.0,2.07,12.25,47.59359,-54.27349
2023-06-08 06:54:01+00:00,174.0,1.94,178.0,2.09,12.25,47.59359,-54.27349
2023-06-08 07:04:01+00:00,181.0,2.92,181.0,3.09,12.25,47.59359,-54.27349
2023-06-08 07:14:01+00:00,184.0,2.14,187.0,2.38,12.25,47.59359,-54.27349
2023-06-08 07:24:01+00:00,199.0,2.84,207.0,3.21,12.25,47.59359,-54.27349
2023-06-08 07:34:01+00:00,207.0,4.0,228.0,5.62,12.25,47.59359,-54.27349
2023-06-08 07:44:01+00:00,219.0,4.23,235.0,5.98,12.25,47.59359,-54.27349
2023-06-08 07:54:01+00:00,229.0,3.47,244.0,5.9,12.25,47.59359,-54.27349
2023-06-08 08:04:01+00:00,221.0,5.19,223.0,5.7,12.25,47.59359,-54.27349
2023-06-08 08:14:00+00:00,221.0,5.6,218.0,6.41,12.17,47.59359,-54.27349
2023-06-08 08:24:00+00:00,218.0,6.28,212.0,7.41,12.17,47.59359,-54.27349
2023-06-08 08:34:00+00:00,228.0,5.54,236.0,6.66,12.17,47.59359,-54.27349
2023-06-08 08:44:00+00:00,214.0,4.15,227.0,5.04,12.17,47.59359,-54.27349
2023-06-08 08:54:00+00:00,229.0,5.67,238.0,6.99,12.17,47.59359,-54.27349
2023-06-08 09:04:00+00:00,198.0,2.95,200.0,3.77,12.17,47.59359,-54.27349
2023-06-08 09:14:00+00:00,223.0,5.45,227.0,6.29,12.33,47.59359,-54.27349
2023-06-08 09:24:00+00:00,219.0,5.02,227.0,5.74,12.33,47.59359,-54.27349
2023-06-08 09:34:00+00:00,224.0,4.66,235.0,5.75,12.33,47.59359,-54.27349
2023-06-08 09:44:00+00:00,234.0,5.04,241.0,5.93,12.33,47.59359,-54.27349
2023-06-08 09:54:00+00:00,243.0,1.35,251.0,1.86,12.33,47.59359,-54.27349
2023-06-08 10:04:00+00:00,212.0,1.12,212.0,1.29,12.33,47.59359,-54.27349
2023-06-08 10:14:00+00:00,210.0,1.23,210.0,1.34,13.13,47.59359,-54.27349
2023-06-08 10:24:00+00:00,186.0,3.45,187.0,3.93,13.13,47.59359,-54.27349
2023-06-08 10:34:00+00:00,176.0,3.32,175.0,3.54,13.13,47.59359,-54.27349
2023-06-08 10:44:00+00:00,196.0,2.39,196.0,2.53,13.13,47.59359,-54.27349
2023-06-08 10:54:00+00:00,183.0,2.87,185.0,3.11,13.13,47.59359,-54.27349
2023-06-08 11:04:00+00:00,194.0,4.23,194.0,4.56,13.13,47.59359,-54.27349
2023-06-08 11:14:00+00:00,200.0,2.18,199.0,2.35,13.68,47.59359,-54.27349
2023-06-08 11:24:00+00:00,201.0,2.03,204.0,2.26,13.68,47.59359,-54.27349
2023-06-08 11:34:00+00:00,189.0,1.68,189.0,1.89,13.68,47.59359,-54.27349
2023-06-08 11:44:00+00:00,196.0,2.73,196.0,2.95,13.68,47.59359,-54.27349
2023-06-08 11:54:00+00:00,201.0,2.7,201.0,3.09,13.68,47.59359,-54.27349
2023-06-08 12:04:00+00:00,202.0,1.97,203.0,2.12,13.68,47.59359,-54.27349
2023-06-08 12:14:00+00:00,180.0,2.98,181.0,3.19,13.76,47.59359,-54.27349
2023-06-08 12:24:00+00:00,190.0,3.14,190.0,3.31,13.76,47.59359,-54.27349
2023-06-08 12:34:00+00:00,186.0,2.36,188.0,2.59,13.76,47.59359,-54.27349
2023-06-08 12:44:00+00:00,185.0,2.46,187.0,2.71,13.76,47.59359,-54.27349
2023-06-08 12:54:00+00:00,175.0,1.09,176.0,1.23,13.76,47.59359,-54.27349
2023-06-08 13:04:00+00:00,182.0,1.0,192.0,1.09,13.76,47.59359,-54.27349
2023-06-08 13:14:00+00:00,0.0,0.89,0.0,1.1,14.32,47.59359,-54.27349
2023-06-08 13:24:00+00:00,279.0,0.75,281.0,0.99,14.32,47.59359,-54.27349
2023-06-08 13:34:00+00:00,317.0,1.81,319.0,1.99,14.32,47.59359,-54.27349
2023-06-08 13:44:00+00:00,258.0,2.03,256.0,2.52,14.32,47.59359,-54.27349
2023-06-08 13:54:00+00:00,276.0,1.62,281.0,1.77,14.32,47.59359,-54.27349
2023-06-08 14:04:00+00:00,232.0,1.29,236.0,1.55,14.32,47.59359,-54.27349
2023-06-08 14:14:00+00:00,206.0,2.13,207.0,2.67,13.76,47.59359,-54.27349
2023-06-08 14:24:00+00:00,207.0,1.82,212.0,2.01,13.76,47.59359,-54.27349
2023-06-08 14:34:00+00:00,267.0,0.59,255.0,0.73,13.76,47.59359,-54.27349
2023-06-08 14:44:00+00:00,193.0,1.05,192.0,1.31,13.76,47.59359,-54.27349
2023-06-08 14:54:00+00:00,192.0,1.85,196.0,2.03,13.76,47.59359,-54.27349
2023-06-08 15:04:00+00:00,222.0,2.09,218.0,2.37,13.76,47.59359,-54.27349
2023-06-08 15:14:00+00:00,210.0,1.59,209.0,1.94,13.68,47.59359,-54.27349
2023-06-08 15:24:00+00:00,270.0,1.37,271.0,1.6,13.68,47.59359,-54.27349
2023-06-08 15:34:00+00:00,275.0,1.53,275.0,2.05,13.68,47.59359,-54.27349
2023-06-08 15:44:00+00:00,291.0,1.31,291.0,1.43,13.68,47.59359,-54.27349
2023-06-08 15:54:00+00:00,320.0,0.81,313.0,0.95,13.68,47.59359,-54.27349
2023-06-08 16:04:00+00:00,323.0,1.76,325.0,1.92,13.68,47.59359,-54.27349
2023-06-08 16:14:00+00:00,21.0,0.85,29.0,1.11,14.32,47.59359,-54.27349
2023-06-08 16:24:00+00:00,141.0,0.43,143.0,0.63,14.32,47.59359,-54.27349
2023-06-08 16:34:00+00:00,189.0,1.08,187.0,1.24,14.32,47.59359,-54.27349
2023-06-08 16:44:00+00:00,147.0,0.49,148.0,0.64,14.32,47.59359,-54.27349
2023-06-08 16:54:00+00:00,166.0,0.55,166.0,0.75,14.32,47.59359,-54.27349
2023-06-08 17:04:00+00:00,42.0,0.54,18.0,1.05,14.32,47.59359,-54.27349
2023-06-08 17:14:00+00:00,294.0,0.6,320.0,0.95,14.32,47.59359,-54.27349
2023-06-08 17:24:00+00:00,278.0,0.89,271.0,1.13,14.32,47.59359,-54.27349
2023-06-08 17:34:00+00:00,332.0,1.4,329.0,1.52,14.32,47.59359,-54.27349
2023-06-08 17:44:00+00:00,324.0,1.21,323.0,1.46,14.32,47.59359,-54.27349
2023-06-08 17:54:00+00:00,301.0,1.98,304.0,2.17,14.32,47.59359,-54.27349
2023-06-08 18:04:00+00:00,294.0,1.54,298.0,1.78,14.32,47.59359,-54.27349
2023-06-08 18:14:00+00:00,306.0,1.17,306.0,1.36,13.76,47.59359,-54.27349
2023-06-08 18:24:00+00:00,245.0,1.28,246.0,1.49,13.76,47.59359,-54.27349
2023-06-08 18:34:00+00:00,200.0,2.32,201.0,2.51,13.76,47.59359,-54.27349
2023-06-08 18:44:00+00:00,215.0,0.71,219.0,1.24,13.76,47.59359,-54.27349
2023-06-08 18:54:00+00:00,227.0,1.66,221.0,1.97,13.76,47.59359,-54.27349
2023-06-08 19:04:00+00:00,238.0,2.17,232.0,2.41,13.76,47.59359,-54.27349
2023-06-08 19:14:00+00:00,231.0,3.63,227.0,4.01,13.68,47.59359,-54.27349
2023-06-08 19:24:00+00:00,225.0,2.06,224.0,2.23,13.68,47.59359,-54.27349
2023-06-08 19:34:00+00:00,216.0,1.99,221.0,2.27,13.68,47.59359,-54.27349
2023-06-08 19:44:00+00:00,216.0,2.75,218.0,2.9,13.68,47.59359,-54.27349
2023-06-08 19:54:00+00:00,205.0,4.65,207.0,4.93,13.68,47.59359,-54.27349
2023-06-08 20:04:00+00:00,202.0,5.28,207.0,5.58,13.68,47.59359,-54.27349
2023-06-08 20:14:01+00:00,187.0,4.47,196.0,4.73,13.76,47.59359,-54.27349
2023-06-08 20:24:01+00:00,196.0,3.82,199.0,4.19,13.76,47.59359,-54.27349
2023-06-08 20:34:01+00:00,237.0,2.37,228.0,2.99,13.76,47.59359,-54.27349
2023-06-08 20:44:01+00:00,209.0,3.86,212.0,4.29,13.76,47.59359,-54.27349
2023-06-08 20:54:01+00:00,216.0,5.2,216.0,6.09,13.76,47.59359,-54.27349
2023-06-08 21:04:01+00:00,210.0,7.15,210.0,7.81,13.76,47.59359,-54.27349
2023-06-08 21:14:01+00:00,211.0,8.2,212.0,8.58,13.53,47.59359,-54.27349
2023-06-08 21:24:01+00:00,212.0,6.24,213.0,6.61,13.53,47.59359,-54.27349
2023-06-08 21:34:01+00:00,212.0,6.35,211.0,6.87,13.53,47.59359,-54.27349
2023-06-08 21:44:01+00:00,211.0,5.6,213.0,6.09,13.53,47.59359,-54.27349
2023-06-08 21:54:01+00:00,216.0,5.03,216.0,5.55,13.53,47.59359,-54.27349
2023-06-08 22:04:01+00:00,218.0,6.85,220.0,7.7,13.53,47.59359,-54.27349
2023-06-08 22:14:01+00:00,216.0,6.99,215.0,7.38,13.37,47.59359,-54.27349
2023-06-08 22:24:01+00:00,216.0,5.53,215.0,5.97,13.37,47.59359,-54.27349
2023-06-08 22:34:01+00:00,216.0,5.27,216.0,5.66,13.37,47.59359,-54.27349
2023-06-08 22:44:01+00:00,216.0,6.24,216.0,6.53,13.37,47.59359,-54.27349
2023-06-08 22:54:01+00:00,214.0,5.91,214.0,6.15,13.37,47.59359,-54.27349
2023-06-08 23:04:01+00:00,207.0,4.0,214.0,4.46,13.37,47.59359,-54.27349
2023-06-08 23:14:00+00:00,208.0,5.58,208.0,6.02,12.97,47.59359,-54.27349
2023-06-08 23:24:00+00:00,199.0,4.13,205.0,4.46,12.97,47.59359,-54.27349
2023-06-08 23:34:00+00:00,183.0,3.54,188.0,3.78,12.97,47.59359,-54.27349
2023-06-08 23:44:00+00:00,191.0,4.04,192.0,4.14,12.97,47.59359,-54.27349
2023-06-08 23:54:00+00:00,188.0,4.22,188.0,4.36,12.97,47.59359,-54.27349
